Tracking 25656 objects as of 21-May-2022
HD Live streaming from Space Station
objects crossing your sky now

COSMOS 2251 DEB

Track COSMOS 2251 DEB now!
10-day predictions


NORAD ID: 40226
Int'l Code: 1993-036BVF
Perigee: 498.1 km
Apogee: 525.4 km
Inclination: 74.1 °
Period: 94.7 minutes
Semi major axis: 6882 km
RCS: Unknown
Launch date: June 16, 1993
Source: Commonwealth of Independent States (former USSR) (CIS)
Launch site: PLESETSK MISSILE AND SPACE COMPLEX (PKMTR)

Note: This is SATELLITE DEBRIS
aabbcc
Your satellite tracking list
Your tracking list is empty




NASA's NSSDC Master Catalog

Two Line Element Set (TLE):
1 40226U 93036BVF 22139.87803534  .00149844  00000-0  67010-2 0  9996
2 40226  74.0594 340.6352 0019892 268.5495 154.1481 15.20410224555905
Source of the keplerian elements: AFSPC